Latest Weather Observations for Low Head

IDT60801

Issued at 2:32 pm EST Tuesday 26 July 2016 (issued every 30 minutes, with the page automatically refreshed every 10 minutes)

About weather observations | Map of weather stations | Latest weather observations for TAS | Other Formats
Station Details ID: 091293 Name: LOW HEAD Lat: -41.05 Lon: 146.79 Height: 3.0 m
Data from the previous 72 hours. | See also: Recent months at Low Head
Date/Time
EST
Temp
°C
App
Temp
°C
Dew
Point
°C
Rel
Hum
%
Delta-T
°C
Wind Press
QNH
hPa
Press
MSL
hPa
Rain since
9am
mm
Dir  Spd
km/h
Gust
km/h
Spd
kts
Gust
kts
26/02:30pm 9.3 -2.7 4.7 73 2.1 W 57 76 31 41 1003.1 1003.1 0.0
26/02:23pm 9.8 -1.7 4.4 69 2.4 WNW 54 76 29 41 1003.1 1003.1 0.0
26/02:00pm 10.4 0.6 5.4 71 2.3 WNW 46 57 25 31 1003.3 1003.3 0.0
26/01:30pm 10.1 -0.1 5.1 71 2.3 WNW 48 69 26 37 1003.6 1003.6 0.0
26/01:07pm 10.4 0.2 5.2 70 2.4 WNW 48 69 26 37 1003.4 1003.4 0.0
26/01:00pm 10.4 -0.2 5.0 69 2.5 WNW 50 59 27 32 1003.5 1003.5 0.0
26/12:30pm 10.2 -0.5 4.8 69 2.4 WNW 50 57 27 31 1003.4 1003.4 0.0
26/12:00pm 10.1 -0.5 5.1 71 2.3 WNW 50 59 27 32 1003.7 1003.7 0.0
26/11:30am 10.0 -0.7 4.8 70 2.3 WNW 50 57 27 31 1003.6 1003.6 0.0
26/11:00am 9.3 -1.0 4.5 72 2.1 WNW 48 61 26 33 1003.7 1003.7 0.0
26/10:30am 9.1 -0.6 4.1 71 2.2 W 44 52 24 28 1003.5 1003.5 0.0
26/10:00am 8.8 -2.0 4.0 72 2.1 W 50 59 27 32 1003.3 1003.3 0.0
26/09:30am 8.7 -2.6 3.7 71 2.2 W 52 63 28 34 1003.0 1003.0 0.0
26/09:00am 8.7 -2.1 4.1 73 2.0 W 50 57 27 31 1002.5 1002.5 4.0
26/08:30am 8.8 -2.3 4.4 74 1.9 W 52 61 28 33 1002.3 1002.3 4.0
26/08:00am 8.2 -2.6 3.9 74 1.9 W 50 65 27 35 1002.1 1002.1 4.0
26/07:30am 8.3 -2.9 4.1 75 1.8 W 52 61 28 33 1001.7 1001.7 4.0
26/07:00am 7.7 -4.3 3.9 77 1.6 W 56 65 30 35 1001.1 1001.1 4.0
26/06:30am 8.2 -3.7 4.2 76 1.7 W 56 69 30 37 1000.6 1000.6 4.0
26/06:00am 7.9 -2.5 4.3 78 1.6 W 48 56 26 30 1000.0 1000.0 4.0
26/05:34am 7.9 -3.7 4.1 77 1.6 WSW 54 72 29 39 999.5 999.5 4.0
26/05:30am 8.0 -4.1 4.0 76 1.7 WSW 57 72 31 39 999.3 999.3 4.0
26/05:00am 8.3 -3.2 4.3 76 1.8 W 54 65 29 35 998.9 998.9 4.0
26/04:46am 8.2 -2.5 4.4 77 1.7 W 50 63 27 34 998.6 998.6 4.0
26/04:30am 8.1 -5.2 4.1 76 1.7 W 63 76 34 41 998.3 998.3 4.0
26/04:06am 8.4 -4.2 3.8 73 2.0 W 59 78 32 42 997.7 997.7 4.0
26/04:00am 8.7 -3.4 4.1 73 2.0 W 57 70 31 38 997.5 997.5 4.0
26/03:30am 9.2 -2.6 5.0 75 1.9 W 56 70 30 38 997.0 997.0 4.0
26/03:00am 8.6 -3.3 4.4 75 1.9 WNW 56 69 30 37 997.1 997.1 4.0
26/02:30am 8.8 -3.6 4.6 75 1.9 W 59 74 32 40 997.0 997.0 4.0
26/02:10am 8.6 -4.3 4.0 73 2.0 W 61 80 33 43 996.8 996.8 4.0
26/02:00am 8.9 -3.9 4.5 74 2.0 W 61 74 33 40 996.7 996.7 4.0
26/01:36am 8.8 -3.6 4.6 75 1.9 WNW 59 80 32 43 996.4 996.4 4.0
26/01:30am 8.5 -3.0 4.3 75 1.8 WNW 54 63 29 34 996.3 996.3 4.0
26/01:00am 8.4 -3.5 4.2 75 1.8 W 56 69 30 37 996.0 996.0 4.0
26/12:30am 8.5 -4.3 4.5 76 1.8 W 61 74 33 40 996.0 996.0 4.0
26/12:05am 8.8 -4.0 4.4 74 1.9 W 61 82 33 44 995.3 995.3 4.0
26/12:00am 8.9 -3.5 4.7 75 1.9 W 59 69 32 37 995.5 995.5 4.0
 
Date/Time
EST
Temp
°C
App
Temp
°C
Dew
Point
°C
Rel
Hum
%
Delta-T
°C
Wind Press
QNH
hPa
Press
MSL
hPa
Rain since
9am
mm
Dir  Spd
km/h
Gust
km/h
Spd
kts
Gust
kts
25/11:48pm 8.9 -3.1 4.7 75 1.9 W 57 76 31 41 995.4 995.4 4.0
25/11:30pm 8.7 -4.1 4.5 75 1.9 WNW 61 76 33 41 995.3 995.3 4.0
25/11:00pm 8.1 -5.5 4.1 76 1.8 WNW 65 89 35 48 994.3 994.3 4.0
25/10:39pm 8.8 -5.5 4.6 75 1.9 W 69 91 37 49 995.0 995.0 4.0
25/10:30pm 8.8 -4.4 4.4 74 1.9 W 63 80 34 43 994.7 994.7 4.0
25/10:00pm 9.6 -4.6 5.2 74 2.0 WNW 69 83 37 45 994.1 994.1 4.0
25/09:30pm 9.3 -4.1 5.5 77 1.7 W 65 87 35 47 993.4 993.4 4.0
25/09:28pm 9.4 -3.9 5.8 78 1.6 W 65 87 35 47 993.4 993.4 4.0
25/09:00pm 9.6 -3.6 6.3 80 1.5 W 65 80 35 43 993.5 993.5 4.0
25/08:41pm 9.7 -3.4 6.6 81 1.4 WNW 65 83 35 45 993.2 993.2 4.0
25/08:30pm 9.8 -3.6 7.1 83 1.3 WNW 67 83 36 45 992.8 992.8 4.0
25/08:04pm 10.1 -1.2 7.9 86 1.1 WNW 57 76 31 41 992.4 992.4 4.0
25/08:00pm 10.2 -1.1 8.0 86 1.1 WNW 57 74 31 40 992.2 992.2 4.0
25/07:30pm 9.7 -3.1 8.0 89 0.8 NW 65 89 35 48 992.7 992.7 4.0
25/07:22pm 9.7 -2.3 8.0 89 0.8 NW 61 83 33 45 992.8 992.8 3.8
25/07:11pm 9.3 -4.0 7.7 90 0.8 NNW 67 91 36 49 992.9 992.9 3.8
25/07:03pm 9.4 -4.8 7.8 90 0.8 N 72 91 39 49 992.5 992.5 3.2
25/07:00pm 9.6 -4.9 8.0 90 0.8 NNW 74 91 40 49 992.7 992.7 3.0
25/06:31pm 10.6 -2.1 8.5 87 1.0 NNW 65 83 35 45 993.5 993.5 1.2
25/06:30pm 10.8 -1.8 8.7 87 1.0 NNW 65 78 35 42 993.5 993.5 1.2
25/06:08pm 11.5 0.3 7.6 77 1.9 N 56 74 30 40 993.6 993.6 0.4
25/06:00pm 11.9 1.5 7.8 76 2.0 NNW 52 69 28 37 994.0 994.0 0.4
25/05:30pm 11.8 1.2 8.3 79 1.7 NNW 54 65 29 35 995.0 995.0 0.4
25/05:07pm 11.3 1.8 8.5 83 1.4 NNW 48 67 26 36 995.6 995.6 0.4
25/05:00pm 11.4 3.0 9.0 85 1.2 NNW 43 56 23 30 995.6 995.6 0.4
25/04:30pm 10.5 2.9 7.6 82 1.4 NW 37 44 20 24 996.6 996.6 0.2
25/04:00pm 11.6 4.5 8.1 79 1.7 NW 35 41 19 22 996.8 996.8 0.0
25/03:30pm 11.4 5.0 8.4 82 1.5 WNW 32 39 17 21 997.3 997.3 0.0
25/03:00pm 11.3 3.1 8.3 82 1.5 WNW 41 46 22 25 997.9 997.9 0.0
25/02:30pm 11.8 3.3 8.6 81 1.6 WNW 43 50 23 27 998.3 998.3 0.0
25/02:00pm 11.3 3.2 8.7 84 1.3 WNW 41 48 22 26 998.3 998.3 0.0
25/01:30pm 12.0 4.9 9.7 86 1.2 WNW 37 43 20 23 998.7 998.7 0.0
25/01:00pm 11.9 5.3 10.1 89 0.9 WNW 35 41 19 22 999.2 999.2 0.0
25/12:30pm 11.8 6.6 10.2 90 0.8 WNW 28 30 15 16 999.6 999.6 0.0
25/12:00pm 11.1 6.6 9.9 92 0.6 WNW 24 30 13 16 1000.2 1000.2 0.0
25/11:30am 10.4 4.9 9.3 93 0.5 WNW 28 33 15 18 1000.5 1000.5 0.0
25/11:00am 10.3 6.6 9.4 94 0.5 WNW 19 22 10 12 1000.6 1000.6 0.0
25/10:30am 10.4 7.9 9.6 95 0.4 WNW 13 15 7 8 1000.6 1000.6 0.0
25/10:00am 9.0 6.5 8.2 95 0.4 SSW 11 15 6 8 1000.5 1000.5 0.0
25/09:30am 8.4 4.7 7.8 96 0.3 S 17 20 9 11 1000.0 1000.0 0.0
25/09:00am 7.9 3.0 7.1 95 0.4 SSW 22 26 12 14 999.7 999.7 20.6
25/08:30am 8.3 4.5 7.5 95 0.4 ESE 17 22 9 12 999.1 999.1 20.6
25/08:00am 7.9 4.8 7.1 95 0.4 SSE 13 17 7 9 999.8 999.8 19.8
25/07:30am 7.6 4.8 6.9 95 0.3 SE 11 17 6 9 1000.0 1000.0 18.2
25/07:00am 7.7 3.2 6.8 94 0.4 S 20 24 11 13 999.9 999.9 16.4
25/06:30am 7.8 5.0 6.9 94 0.4 SE 11 15 6 8 1000.1 1000.1 16.2
25/06:00am 7.4 3.7 6.3 93 0.5 SSE 15 19 8 10 1000.1 1000.1 14.4
25/05:30am 7.7 3.7 6.5 92 0.5 S 17 24 9 13 1000.3 1000.3 14.0
25/05:00am 8.6 5.1 7.2 91 0.7 S 15 19 8 10 1000.1 1000.1 13.2
25/04:30am 9.7 6.0 8.1 90 0.8 WNW 17 24 9 13 1000.0 1000.0 12.6
25/04:00am 8.3 4.7 6.6 89 0.8 SSW 15 22 8 12 1000.0 1000.0 12.2
25/03:37am 10.3 7.5 8.4 88 0.9 N 13 35 7 19 1000.1 1000.1 12.0
25/03:30am 9.9 7.7 8.0 88 0.9 NNW 9 11 5 6 1000.0 1000.0 11.8
25/03:00am 9.8 3.2 7.9 88 0.9 NW 32 56 17 30 1000.5 1000.5 11.4
25/02:58am 9.9 4.1 8.0 88 0.9 NW 28 56 15 30 1000.6 1000.6 11.2
25/02:30am 11.1 5.8 9.7 91 0.7 NNW 28 35 15 19 1000.7 1000.7 11.2
25/02:00am 8.3 5.2 7.2 93 0.5 S 13 20 7 11 1000.9 1000.9 11.2
25/01:30am 7.2 3.5 6.1 93 0.5 ESE 15 22 8 12 1001.2 1001.2 11.2
25/01:00am 7.0 3.2 5.9 93 0.5 ESE 15 19 8 10 1001.4 1001.4 11.0
25/12:30am 7.1 3.3 6.0 93 0.5 ESE 15 19 8 10 1001.7 1001.7 11.0
25/12:00am 7.5 3.1 6.4 93 0.5 E 19 20 10 11 1002.2 1002.2 9.4
 
Date/Time
EST
Temp
°C
App
Temp
°C
Dew
Point
°C
Rel
Hum
%
Delta-T
°C
Wind Press
QNH
hPa
Press
MSL
hPa
Rain since
9am
mm
Dir  Spd
km/h
Gust
km/h
Spd
kts
Gust
kts
24/11:30pm 7.5 1.7 6.3 92 0.5 E 26 32 14 17 1002.3 1002.3 9.0
24/11:00pm 7.0 2.2 5.6 91 0.6 E 20 24 11 13 1002.7 1002.7 7.8
24/10:30pm 6.8 2.9 5.3 90 0.7 SSE 15 20 8 11 1002.7 1002.7 5.4
24/10:00pm 7.0 2.8 5.5 90 0.7 ESE 17 22 9 12 1002.6 1002.6 4.6
24/09:30pm 7.3 2.7 5.4 88 0.8 E 19 24 10 13 1003.0 1003.0 4.4
24/09:00pm 7.3 4.1 5.3 87 0.9 ESE 11 13 6 7 1003.1 1003.1 4.0
24/08:30pm 7.8 5.1 5.6 86 1.0 ESE 9 11 5 6 1003.1 1003.1 4.0
24/08:00pm 8.1 5.5 5.9 86 1.0 S 9 13 5 7 1003.2 1003.2 4.0
24/07:30pm 8.7 4.1 6.5 86 1.0 WSW 20 26 11 14 1003.4 1003.4 4.0
24/07:00pm 8.4 5.8 6.2 86 1.0 W 9 13 5 7 1004.1 1004.1 3.8
24/06:30pm 8.7 5.4 6.3 85 1.1 W 13 20 7 11 1004.3 1004.3 3.2
24/06:00pm 8.5 6.4 6.0 84 1.1 W 6 13 3 7 1003.7 1003.7 1.8
24/05:30pm 8.7 5.0 6.2 84 1.1 NW 15 19 8 10 1003.8 1003.8 1.6
24/05:00pm 8.5 1.9 6.0 84 1.1 NNW 30 37 16 20 1003.9 1003.9 1.4
24/04:51pm 8.7 0.4 6.2 84 1.1 NW 39 46 21 25 1003.9 1003.9 1.4
24/04:30pm 9.0 2.9 6.6 85 1.1 NNW 28 46 15 25 1004.0 1004.0 1.4
24/04:29pm 9.1 3.4 6.7 85 1.1 NNW 26 43 14 23 1004.0 1004.0 1.4
24/04:00pm 8.9 4.4 6.0 82 1.3 NNW 19 26 10 14 1004.0 1004.0 1.2
24/03:30pm 9.1 6.5 6.0 81 1.4 NE 9 11 5 6 1004.2 1004.2 1.0
24/03:00pm 9.0 6.3 5.7 80 1.5 NNE 9 13 5 7 1004.3 1004.3 1.0
24/02:30pm 8.4 3.5 5.0 79 1.5 N 20 30 11 16 1004.7 1004.7 1.0
24/02:00pm 9.7 6.6 5.5 75 1.9 N 11 15 6 8 1004.6 1004.6 0.0
24/01:30pm 10.4 8.1 5.6 72 2.2 NNE 7 11 4 6 1004.9 1004.9 0.0
24/01:00pm 10.0 7.7 5.0 71 2.3 NNE 6 9 3 5 1005.3 1005.3 0.0
24/12:30pm 10.0 8.9 5.2 72 2.2 CALM 0 0 0 0 1005.7 1005.7 0.0
24/12:00pm 10.3 8.5 5.5 72 2.2 WNW 4 7 2 4 1006.2 1006.2 0.0
24/11:30am 9.3 7.0 4.9 74 2.0 W 6 7 3 4 1006.6 1006.6 0.0
24/11:00am 8.5 5.6 4.5 76 1.8 W 9 11 5 6 1007.0 1007.0 0.0
24/10:30am 8.6 6.3 5.0 78 1.6 WSW 6 9 3 5 1007.0 1007.0 0.0
24/10:00am 8.0 5.1 4.6 79 1.5 SSW 9 11 5 6 1007.0 1007.0 0.0
24/09:30am 7.4 4.4 4.0 79 1.5 S 9 11 5 6 1007.1 1007.1 0.0
24/09:00am 7.4 5.3 4.0 79 1.5 WSW 4 11 2 6 1007.1 1007.1 0.0
24/08:30am 6.8 3.7 3.6 80 1.4 SSW 9 13 5 7 1007.2 1007.2 0.0
24/08:00am 6.7 3.2 3.5 80 1.4 SW 11 13 6 7 1007.2 1007.2 0.0
24/07:30am 6.5 3.3 3.1 79 1.4 SSW 9 13 5 7 1007.1 1007.1 0.0
24/07:00am 6.8 2.5 3.2 78 1.5 SW 15 19 8 10 1007.0 1007.0 0.0
24/06:30am 7.3 2.1 3.5 77 1.6 WSW 20 24 11 13 1006.9 1006.9 0.0
24/06:00am 8.1 1.9 4.3 77 1.7 W 26 32 14 17 1007.0 1007.0 0.0
24/05:30am 7.1 2.8 3.3 77 1.6 WSW 15 19 8 10 1006.8 1006.8 0.0
24/05:00am 7.1 2.4 3.2 76 1.6 SW 17 26 9 14 1006.7 1006.7 0.0
24/04:30am 7.4 2.8 3.5 76 1.7 WSW 17 20 9 11 1006.9 1006.9 0.0
24/04:00am 7.2 1.5 3.1 75 1.7 WSW 22 28 12 15 1006.9 1006.9 0.0
24/03:30am 7.1 2.4 3.2 76 1.6 SW 17 22 9 12 1007.0 1007.0 0.0
24/03:00am 7.8 2.2 3.3 73 1.9 W 22 30 12 16 1007.0 1007.0 0.0
24/02:30am 6.9 2.9 2.6 74 1.8 W 13 20 7 11 1007.3 1007.3 0.0
24/02:00am 6.3 1.7 1.8 73 1.8 SW 15 19 8 10 1007.3 1007.3 0.0
24/01:30am 6.6 1.7 2.1 73 1.8 SW 17 20 9 11 1007.3 1007.3 0.0
24/01:00am 7.1 1.3 2.4 72 1.9 WSW 22 28 12 15 1007.2 1007.2 0.0
24/12:30am 7.5 0.5 2.0 68 2.3 WSW 28 33 15 18 1007.2 1007.2 0.0
24/12:00am 7.6 0.6 1.9 67 2.3 WSW 28 37 15 20 1007.2 1007.2 0.0
 
Date/Time
EST
Temp
°C
App
Temp
°C
Dew
Point
°C
Rel
Hum
%
Delta-T
°C
Wind Press
QNH
hPa
Press
MSL
hPa
Rain since
9am
mm
Dir  Spd
km/h
Gust
km/h
Spd
kts
Gust
kts
23/11:30pm 7.9 0.4 1.5 64 2.6 WSW 30 37 16 20 1006.9 1006.9 0.0
23/11:00pm 8.1 0.1 1.9 65 2.6 WSW 33 39 18 21 1006.7 1006.7 0.0
23/10:30pm 7.9 -0.4 2.0 66 2.4 W 35 43 19 23 1006.6 1006.6 0.0
23/10:00pm 7.9 -0.7 2.4 68 2.3 W 37 44 20 24 1006.2 1006.2 0.0
23/09:30pm 7.8 -0.8 2.5 69 2.2 WSW 37 44 20 24 1005.7 1005.7 0.0
23/09:00pm 6.9 -1.1 1.6 69 2.2 WSW 33 41 18 22 1005.0 1005.0 0.0
23/08:30pm 7.4 -1.3 1.9 68 2.2 WSW 37 46 20 25 1004.7 1004.7 0.0
23/08:00pm 7.2 -1.5 1.7 68 2.2 WSW 37 46 20 25 1004.1 1004.1 0.0
23/07:30pm 7.3 -2.2 1.6 67 2.3 WSW 41 50 22 27 1003.1 1003.1 0.0
23/07:00pm 7.2 -2.7 1.9 69 2.2 WSW 43 50 23 27 1002.6 1002.6 0.0
23/06:30pm 7.5 -2.9 2.2 69 2.2 WSW 46 54 25 29 1001.7 1001.7 0.0
23/06:00pm 7.3 -0.9 2.6 72 2.0 WSW 35 44 19 24 1000.8 1000.8 0.0
23/05:30pm 7.0 -2.0 2.3 72 1.9 WSW 39 48 21 26 999.7 999.7 0.0
23/05:00pm 7.4 -1.1 3.3 75 1.7 WSW 37 44 20 24 998.7 998.7 0.0
23/04:30pm 7.6 -1.6 3.6 76 1.7 WSW 41 54 22 29 997.5 997.5 0.0
23/04:13pm 7.7 1.0 3.9 77 1.6 SW 28 46 15 25 996.6 996.6 0.0
23/04:00pm 7.6 2.1 3.8 77 1.6 SW 22 32 12 17 996.3 996.3 0.0
23/03:30pm 7.1 1.1 3.2 76 1.6 SW 24 33 13 18 995.5 995.5 0.0
23/03:00pm 6.8 -1.0 2.7 75 1.7 WSW 33 43 18 23 995.2 995.2 0.0

Other Formats:

Comma delimited format used in spreadsheet applications
http://www.bom.gov.au/fwo/IDT60801/IDT60801.95964.axf

JavaScript Object Notation format (JSON) in row-major order
http://www.bom.gov.au/fwo/IDT60801/IDT60801.95964.json